Aravan

Kyrgyzstan     40˚30′48″N   72˚30′13″E
temp.,
°C
wind,
m/s
gust,
m/s
humid.,
%
clouds,
%
prec.,
mm/h
press.,
hPa
HPBL,
m
3 december, thu
thu300:00+5˚se2287100 0.3 102725
03:00+4˚ssw1294100 1.9 102726
06:00+5˚se2389100 2.8 102839
09:00+5˚ssw0192100 0.2 102925
12:00+6˚nne1090100 0.9 1027103
15:00+8˚n118294 0.0 1024328
18:00+6˚nw119296 0.0 102651
21:00+5˚n1197100 0.1 102522
4 december, fri
fri400:00+5˚n0098100 1.5 102442
03:00+5˚w2299100 2.9 102390
06:00+5˚wsw3597100 6.8 1023323
09:00+4˚sw2493100 2.5 1024268
12:00+6˚nne1182100 3.3 1023342
15:00+5˚nnw2392100 0.2 1022219
18:00+4˚n1196100 1.9 1024101
21:00+4˚nw2397100 2.3 1025225
5 december, sat
sat500:00+3˚sw2688100 3.3 1026536
03:00+2˚wnw1291100 0.1 1027258
06:00+1˚sw1296100 0.8 1028153
09:00+2˚se1295100 0.9 1029149
12:00+3˚wnw1374100 1.1 1027581
15:00+4˚nnw226685 0.0 1026670
18:00+3˚ne117892 0.0 102957
21:00+2˚e1281100 0.0 103131
6 december, sun
sun600:00+1˚ene1179100 0.0 103122
03:00wsw118199 0.0 103122
06:00sw118898 0.0 103221
09:00e00857 0.0 103321
12:00+3˚nnw216518 0.0 1030444
15:00+4˚nnw215514 0.0 1028621
18:00+2˚nne116428 0.0 102922
21:00+1˚se116964 0.0 102922
7 december, mon
mon700:00+1˚s017082 0.0 102822
03:00+1˚se0170100 0.0 102622
06:00+1˚se0067100 0.0 102522
09:00+1˚sw1165100 0.0 102522
12:00+3˚w2354100 0.0 1024367
15:00+4˚wnw3351100 0.0 1024644
18:00+2˚nnw1266100 0.0 102728
21:00+1˚nne1171100 0.0 102831